Weather History for Ahoskie, NC

Change the Weather History Date:

Tuesday, March 12, 2013

  Actual Average (KEMV) Record (KEMV)
Temperature  
Mean Temperature 60 °F -  
Max Temperature 70 °F 61 °F 84 °F (2006)
Min Temperature 50 °F 33 °F 19 °F (1991)
Degree Days  
Heating Degree Days 5    
Growing Degree Days 10 (Base 50)    
Moisture  
Dew Point 54 °F    
Average Humidity 80    
Maximum Humidity 92    
Minimum Humidity 54    
Precipitation  
Precipitation 0.31 in - - ()
Sea Level Pressure  
Sea Level Pressure 29.85 in    
Wind  
Wind Speed 7 mph (South)    
Max Wind Speed 15 mph    
Max Gust Speed 20 mph    
Visibility 10 miles    
Events Rain    
Averages and records for this station are not official NWS values.
T = Trace of Precipitation, MM = Missing Value Source: NWS Daily Summary

Daily Weather History Graph

Daily Weather History Graph

Search for Another Location

Airport:

Trip Planner

Search our weather history database for the weather conditions in past years. The results will help you decide how hot, cold, wet, or windy it might be!

Date:

Astronomy

Mar. 12, 2013 Rise Set
Actual Time 7:23 AM EDT 7:13 PM EDT
Civil Twilight 6:57 AM EDT 7:39 PM EDT
Nautical Twilight 6:28 AM EDT 8:09 PM EDT
Astronomical Twilight 5:58 AM EDT 8:39 PM EDT
Moon 7:31 AM EDT (3/12) 8:23 PM EDT (3/12)
Length of Visible Light 12h 41m
Length of Day
11h 50m
New Moon, 1% of the Moon is Illuminated
Mar 12
New Moon
Mar 19
First Quarter
Mar 27
Full
Apr 3
Last Quarter
Apr 10
New

Hourly Weather History & Observations

Time (EDT) Temp. Dew Point Humidity Pressure Visibility Wind Dir Wind Speed Gust Speed Precip Events Conditions
12:35 AM 58.1 °F 50.5 °F 76% 30.00 in 10.0 mi SSE 6.9 mph - N/A   Overcast
12:55 AM 58.1 °F 50.5 °F 76% 29.99 in 10.0 mi SSE 6.9 mph - N/A   Overcast
1:15 AM 57.7 °F 50.9 °F 78% 29.98 in 10.0 mi SE 6.9 mph - N/A   Mostly Cloudy
1:35 AM 57.6 °F 50.9 °F 78% 29.97 in 10.0 mi SE 5.8 mph - N/A   Scattered Clouds
1:55 AM 57.6 °F 51.1 °F 79% 29.97 in 10.0 mi SSE 8.1 mph - N/A   Mostly Cloudy
2:15 AM 57.6 °F 51.3 °F 79% 29.97 in 10.0 mi SSE 8.1 mph - N/A   Overcast
2:35 AM 57.7 °F 51.4 °F 79% 29.95 in 10.0 mi SSE 8.1 mph - N/A   Scattered Clouds
2:55 AM 57.6 °F 51.8 °F 81% 29.94 in 10.0 mi SSE 8.1 mph - N/A   Clear
3:15 AM 57.6 °F 52.0 °F 82% 29.94 in 10.0 mi SSE 6.9 mph - N/A   Scattered Clouds
3:35 AM 58.1 °F 52.2 °F 81% 29.93 in 10.0 mi SSE 8.1 mph - N/A   Overcast
4:15 AM 57.6 °F 52.7 °F 84% 29.91 in 10.0 mi SSE 10.4 mph - N/A Rain Light Rain
4:35 AM 57.6 °F 54.0 °F 88% 29.91 in 10.0 mi SSE 8.1 mph - N/A Rain Rain
4:55 AM 56.7 °F 53.6 °F 89% 29.90 in 7.0 mi SSE 8.1 mph - N/A Rain Rain
5:15 AM 56.7 °F 53.6 °F 89% 29.90 in 7.0 mi SSE 11.5 mph - 0.01 in Rain Rain
5:35 AM 57.4 °F 54.5 °F 90% 29.90 in 10.0 mi SSE 9.2 mph - 0.03 in Rain Rain
5:55 AM 57.6 °F 54.7 °F 90% 29.90 in 10.0 mi SSE 9.2 mph - 0.06 in Rain Rain
6:15 AM 57.6 °F 54.7 °F 90% 29.89 in 10.0 mi SSE 8.1 mph - 0.02 in Rain Rain
6:35 AM 57.6 °F 54.7 °F 90% 29.89 in 10.0 mi SSE 11.5 mph - 0.04 in Rain Rain
6:55 AM 57.6 °F 54.7 °F 90% 29.88 in 7.0 mi SSE 11.5 mph 16.1 mph 0.06 in Rain Rain
7:15 AM 57.6 °F 54.9 °F 91% 29.88 in 10.0 mi SSE 10.4 mph - 0.01 in Rain Light Rain
7:35 AM 57.6 °F 55.0 °F 91% 29.87 in 10.0 mi SSE 9.2 mph - 0.03 in Rain Rain
7:55 AM 57.6 °F 55.0 °F 91% 29.87 in 7.0 mi SSE 10.4 mph 17.3 mph 0.06 in Rain Rain
8:15 AM 57.7 °F 55.4 °F 92% 29.85 in 7.0 mi SSE 10.4 mph 17.3 mph 0.03 in Rain Rain
8:35 AM 58.1 °F 55.4 °F 91% 29.84 in 10.0 mi SE 11.5 mph - 0.05 in Rain Rain
8:55 AM 58.1 °F 55.6 °F 91% 29.86 in 10.0 mi South 11.5 mph 17.3 mph 0.06 in Rain Light Rain
9:15 AM 59.0 °F 56.3 °F 91% 29.85 in 10.0 mi SSE 10.4 mph 19.6 mph 0.02 in Rain Light Rain
9:35 AM 59.9 °F 57.2 °F 91% 29.84 in 10.0 mi SSE 15.0 mph 18.4 mph 0.02 in Rain Rain
9:55 AM 60.1 °F 57.2 °F 90% 29.84 in 10.0 mi South 10.4 mph - 0.03 in Rain Light Rain
10:15 AM 60.1 °F 57.2 °F 90% 29.85 in 10.0 mi South 8.1 mph - N/A   Overcast
10:35 AM 60.1 °F 57.2 °F 90% 29.85 in 10.0 mi South 8.1 mph 16.1 mph N/A   Overcast
10:55 AM 62.4 °F 59.4 °F 90% 29.84 in 10.0 mi South 10.4 mph 18.4 mph N/A   Overcast
11:15 AM 62.6 °F 59.4 °F 89% 29.85 in 10.0 mi SSW 12.7 mph 19.6 mph N/A   Overcast
11:35 AM 65.3 °F 61.7 °F 88% 29.84 in 10.0 mi South 8.1 mph 16.1 mph N/A   Mostly Cloudy
11:55 AM 65.3 °F 61.7 °F 88% 29.84 in 10.0 mi South 9.2 mph - N/A   Mostly Cloudy
12:15 PM 65.3 °F 61.2 °F 86% 29.84 in 10.0 mi South 5.8 mph - N/A   Scattered Clouds
12:35 PM 65.3 °F 60.4 °F 84% 29.83 in 10.0 mi South 9.2 mph 16.1 mph N/A   Mostly Cloudy
12:55 PM 65.3 °F 61.0 °F 86% 29.83 in 10.0 mi South 8.1 mph 18.4 mph N/A Rain Light Rain
1:15 PM 65.3 °F 60.6 °F 85% 29.82 in 10.0 mi South 9.2 mph - N/A   Mostly Cloudy
1:35 PM 65.3 °F 60.3 °F 84% 29.81 in 10.0 mi SSW 5.8 mph - N/A   Mostly Cloudy
1:55 PM 65.3 °F 60.8 °F 85% 29.80 in 7.0 mi SSW 6.9 mph - N/A Rain Rain
2:15 PM 65.3 °F 60.3 °F 84% 29.79 in 10.0 mi South 8.1 mph - N/A   Scattered Clouds
2:35 PM 66.7 °F 61.2 °F 82% 29.77 in 10.0 mi SSW 5.8 mph - N/A   Mostly Cloudy
2:55 PM 66.0 °F 60.3 °F 82% 29.76 in 10.0 mi SSW 4.6 mph - N/A   Mostly Cloudy
3:15 PM 65.3 °F 61.0 °F 86% 29.76 in 4.0 mi SSW 4.6 mph - 0.02 in Rain Heavy Rain
3:35 PM 65.3 °F 61.2 °F 86% 29.75 in 10.0 mi SSW 6.9 mph - 0.02 in   Scattered Clouds
3:55 PM 70.0 °F 64.8 °F 83% 29.74 in 10.0 mi SSW 4.6 mph - 0.02 in   Scattered Clouds
4:15 PM 70.0 °F 63.3 °F 79% 29.73 in 10.0 mi South 6.9 mph - N/A   Clear
4:35 PM 70.0 °F 63.0 °F 78% 29.74 in 10.0 mi SW 3.5 mph - N/A   Scattered Clouds
4:55 PM 70.0 °F 61.5 °F 74% 29.73 in 10.0 mi South 4.6 mph - N/A   Clear
5:15 PM 70.0 °F 61.9 °F 75% 29.74 in 10.0 mi SSW 4.6 mph - N/A   Clear
5:35 PM 65.3 °F 61.0 °F 86% 29.75 in 5.0 mi Calm Calm - 0.01 in Rain Light Rain
5:55 PM 65.3 °F 61.5 °F 88% 29.76 in 10.0 mi Calm Calm - 0.02 in   Scattered Clouds
6:15 PM 65.3 °F 59.0 °F 80% 29.77 in 10.0 mi NW 4.6 mph - N/A   Scattered Clouds
6:35 PM 65.3 °F 58.3 °F 78% 29.78 in 10.0 mi NW 3.5 mph - N/A   Scattered Clouds
6:55 PM 65.3 °F 57.6 °F 76% 29.78 in 10.0 mi NW 3.5 mph - N/A   Clear
7:15 PM 65.3 °F 56.3 °F 73% 29.80 in 10.0 mi WNW 3.5 mph - N/A   Clear
7:35 PM 62.6 °F 52.9 °F 70% 29.81 in 10.0 mi Calm Calm - N/A   Clear
7:55 PM 60.1 °F 51.1 °F 72% 29.82 in 10.0 mi Calm Calm - N/A   Clear
8:15 PM 59.2 °F 50.9 °F 74% 29.83 in 10.0 mi Calm Calm - N/A   Clear
8:35 PM 58.8 °F 49.1 °F 70% 29.83 in 10.0 mi Calm Calm - N/A   Clear
8:55 PM 57.6 °F 48.6 °F 72% 29.84 in 10.0 mi Calm Calm - N/A   Clear
9:15 PM 56.7 °F 45.0 °F 65% 29.85 in 10.0 mi Calm Calm - N/A   Clear
9:35 PM 56.3 °F 42.8 °F 61% 29.86 in 10.0 mi Calm Calm - N/A   Clear
9:55 PM 55.0 °F 39.9 °F 57% 29.87 in 10.0 mi NNW 8.1 mph - N/A   Clear
10:15 PM 55.0 °F 38.8 °F 54% 29.88 in 10.0 mi NNW 4.6 mph - N/A   Clear
10:35 PM 52.9 °F 37.9 °F 57% 29.89 in 10.0 mi NW 4.6 mph - N/A   Clear
10:55 PM 52.7 °F 38.7 °F 59% 29.90 in 10.0 mi Calm Calm - N/A   Clear
11:15 PM 52.2 °F 38.5 °F 60% 29.91 in 10.0 mi Calm Calm - N/A   Clear
11:35 PM 50.0 °F 36.5 °F 60% 29.91 in 10.0 mi Calm Calm - N/A   Clear
11:55 PM 50.0 °F 36.5 °F 60% 29.91 in 10.0 mi NW 3.5 mph - N/A   Clear